BEIDOU-2 G7 (C03)

Last updated on Wed Oct 22 2025 00:03:24 GMT+0000 (Coordinated Universal Time)

1 41586U 16037A 25294.64585748 -.00000345 00000+0 00000+0 0 9991 2 41586 1.6264 67.0796 0005672 339.5978 326.7532 1.00272747 4499
UTC large
Height (km)
Speed (km/s)
/
Latitude / Longitude
Inclination (degrees)
Orbital Period (minutes)
Azimuth
Elevation
Range (km)
Doppler Factor

Next 0 passes for location: London (51.5072 / 0.1276)

Sorry there are no passes over London.